[Iaude] MPEC J115: 2023 JW34 [a=1.04,e=0.03,i=0.1,H=32.0]
    mpec at cfa.harvard.edu 
    mpec at cfa.harvard.edu
       
    Tue May  7 12:57:17 EDT 2024
    
    
  
M.P.E.C. 2024-J115                                  Issued 2024 May 7, 16:55 UT
     The Minor Planet Electronic Circulars contain information on unusual
         minor planets, routine data on comets and natural satellites,
         and occasional editorial announcements.  They are published
    on behalf of Division F of the International Astronomical Union by the
          Minor Planet Center, Smithsonian Astrophysical Observatory,
                          Cambridge, MA 02138, U.S.A.
			  
             Prepared using the Tamkin Foundation Computer Network
                              MPC at CFA.HARVARD.EDU
            URL https://www.minorplanetcenter.net/    ISSN 1523-6714
                                   2023 JW34                                    
Observations:
     K23J34W*1C2023 05 13.29862014 17 25.174-06 15 38.70         18.17GVEJ115703
     K23J34W 1C2023 05 13.29985214 17 43.249-06 16 57.90         17.59GVEJ115703
     K23J34W 1C2023 05 13.30107714 18 00.781-06 18 14.69         18.18GVEJ115703
     K23J34W KC2023 05 13.32896514 24 47.430-06 47 50.96         17.66GVEJ115I52
     K23J34W KC2023 05 13.32927214 24 51.894-06 48 10.04         17.53GVEJ115I52
     K23J34W mC2023 05 13.39422214 40 51.899-07 53 10.39         17.85GVEJ115I52
     K23J34W mC2023 05 13.39432214 40 53.461-07 53 15.86               VEJ115I52
     K23J34W mC2023 05 13.39442314 40 54.944-07 53 21.88         17.72GVEJ115I52
     K23J34W mC2023 05 13.39452414 40 56.482-07 53 27.92         17.86GVEJ115I52
Observer details:
703 Catalina Sky Survey.  Observer A. Serrano.  Measurers E. J. Christensen,
    D. Fay, J. B. Fazekas, D. C. Fuls, A. R. Gibbs, A. D. Grauer, H. Groeller,
    J. K. Hogan, R. A. Kowalski, S. M. Larson, G. J. Leonard, D. Rankin, R. L.
    Seaman, A. Serrano, F. C. Shelly, K. W. Wierzchos.  0.68-m Schmidt + 10K
    CCD.
I52 Steward Observatory, Mt. Lemmon Station.  Observer K. W. Wierzchos.
    Measurers E. J. Christensen, D. Fay, J. B. Fazekas, D. C. Fuls, A. R.
    Gibbs, A. D. Grauer, H. Groeller, J. K. Hogan, R. A. Kowalski, S. M.
    Larson, G. J. Leonard, D. Rankin, R. L. Seaman, A. Serrano, F. C. Shelly,
    K. W. Wierzchos.  1.0-m prime focus + CCD.
Orbital elements:
2023 JW34                                                Earth MOID = 0.0004 AU
Epoch 2024 Mar. 31.0 TT = JDT 2460400.5                 Veres                   
M 308.68031              (2000.0)            P               Q                  
n   0.92433995     Peri.  167.25763     -0.74752264     +0.66423471             
a   1.0437141      Node    54.36611     -0.60958290     -0.68513894             
e   0.0314620      Incl.    0.10324     -0.26385335     -0.29895967             
P   1.07           H   32.09          G   0.15           U   9                  
Residuals in seconds of arc
230513 703  1.0-  0.5-    230513 I52  0.6+  0.0     230513 I52  0.4+  0.3+
230513 703  2.0+  0.2-    230513 I52  0.3+  0.1+    230513 I52  0.0   0.1+
230513 703  1.6-  2.0+    230513 I52  0.4-  0.0     230513 I52  0.4+  0.1-
Ephemeris:
2023 JW34                a,e,i = 1.04, 0.03, 0                   q = 1.0109
Date    TT    R. A. (2000) Decl.     Delta      r    Elong.  Phase     V
2024 04 07    06 37 04.7 +23 23 16   0.4066  1.0210    81.2    75.7    32.8
...
2024 04 22    07 34 31.0 +21 50 39   0.4084  1.0158    79.8    76.9    32.9
...
2024 04 30    08 04 58.5 +20 29 35   0.4077  1.0138    79.3    77.5    32.9
...
2024 05 06    08 27 39.9 +19 15 06   0.4067  1.0126    78.9    77.9    32.9
2024 05 07    08 31 26.0 +19 01 34   0.4064  1.0124    78.9    77.9    32.9
2024 05 08    08 35 12.0 +18 47 44   0.4062  1.0123    78.8    78.0    32.9
...
2024 05 14    08 57 42.8 +17 18 22   0.4046  1.0115    78.6    78.3    32.9
...
2024 05 22    09 27 28.3 +15 03 19   0.4019  1.0109    78.4    78.7    32.9
...
2024 06 06    10 22 31.5 +10 08 27   0.3959  1.0115    78.3    79.2    32.9
M. P. C. Staff               (C) Copyright 2024 MPC           M.P.E.C. 2024-J115
    
    
More information about the Iaude
mailing list